Location: Proctor
(47.8934°N, 114.3048°W)
Time: 21:17:19
(UTC+00:00)

Tiros 1 despin weight - Pass Details

Date: 02 July 2024
Orbit: 576 x 620 km, 48.2° (Epoch: 19 July)

Event Time Altitude Azimuth Distance (km) Brightness Sun altitude
Rises 15:58:25 0° 226° (SW) 2,848 ? 39.6°
Reaches altitude 10° 16:00:48 10° 218° (SW) 1,955 ? 39.9°
Maximum altitude 16:04:58 38° 150° (SSE) 938 ? 40.6°
Drops below altitude 10° 16:09:11 10° 83° (E) 1,982 ? 41.3°
Sets 16:11:37 0° 75° (ENE) 2,894 ? 41.7°
